Weather History for KMFI - December, 2013

Change the Weather History Date:

Tuesday, December 17, 2013

  Actual Average Record
Temperature  
Mean Temperature 21 °F -  
Max Temperature 30 °F 26 °F 47 °F (1939)
Min Temperature 12 °F 10 °F -19 °F (1919)
Degree Days  
Heating Degree Days 44    
Moisture  
Dew Point 17 °F    
Average Humidity 82    
Maximum Humidity 92    
Minimum Humidity 67    
Precipitation  
Precipitation 0.05 in - - ()
Sea Level Pressure  
Sea Level Pressure 29.86 in    
Wind  
Wind Speed 12 mph (West)    
Max Wind Speed 22 mph    
Max Gust Speed 30 mph    
Visibility 5 miles    
Events Fog , Snow    
Averages and records for this station are not official NWS values.
T = Trace of Precipitation, MM = Missing Value Source: NWS Daily Summary

Daily Weather History Graph

Daily Weather History Graph

Search for Another Location

Airport or City:

Trip Planner

Search our weather history database for the weather conditions in past years. The results will help you decide how hot, cold, wet, or windy it might be!

Date:

Astronomy

Dec. 17, 2013 Rise Set
Actual Time 7:32 AM CST 4:21 PM CST
Civil Twilight 6:58 AM CST 4:55 PM CST
Nautical Twilight 6:21 AM CST 5:32 PM CST
Astronomical Twilight 5:46 AM CST 6:07 PM CST
Moon 5:04 PM CST (12/17) 7:26 AM CST (12/17)
Length of Visible Light 9h 56m
Length of Day
8h 49m
Full, 100% of the Moon is Illuminated
Dec 17
Full
Dec 25
Last Quarter
Jan 1
New
Jan 7
First Quarter
Jan 15
Full

Hourly Weather History & Observations

Time (CST) Temp. Windchill Dew Point Humidity Pressure Visibility Wind Dir Wind Speed Gust Speed Precip Events Conditions
12:54 AM 12.9 °F 0.7 °F 10.9 °F 92% 29.94 in 3.0 mi SW 9.2 mph - N/A   Overcast
1:08 AM 12.9 °F 1.6 °F 10.9 °F 92% 29.85 in 2.5 mi SSW 8.1 mph - N/A   Overcast
1:54 AM 14.0 °F 0.5 °F 12.0 °F 92% 29.91 in 2.0 mi SSW 11.5 mph - N/A   Overcast
2:20 AM 15.1 °F 1.8 °F 12.0 °F 88% 29.83 in 1.8 mi SW 11.5 mph - 0.00 in Snow Light Snow
2:36 AM 16.0 °F 3.6 °F 12.9 °F 88% 29.81 in 0.8 mi SSW 10.4 mph - 0.01 in Snow Light Snow
2:44 AM 16.0 °F 3.6 °F 12.9 °F 88% 29.81 in 0.5 mi SSW 10.4 mph - 0.01 in Fog , Snow Snow
2:54 AM 16.0 °F 3.6 °F 12.9 °F 88% 29.90 in 1.0 mi SW 10.4 mph - 0.01 in Snow Light Snow
3:01 AM 16.0 °F 3.6 °F 12.9 °F 88% 29.81 in 1.2 mi SW 10.4 mph - 0.00 in Snow Light Snow
3:05 AM 16.0 °F 4.4 °F 12.9 °F 88% 29.81 in 0.8 mi SW 9.2 mph - 0.00 in Snow Light Snow
3:15 AM 16.0 °F 3.6 °F 12.9 °F 88% 29.80 in 0.2 mi SW 10.4 mph - 0.02 in Fog , Snow Heavy Snow
3:29 AM 16.0 °F 3.6 °F 14.0 °F 92% 29.80 in 0.5 mi SW 10.4 mph - 0.03 in Fog , Snow Snow
3:35 AM 16.0 °F 3.6 °F 14.0 °F 92% 29.79 in 1.2 mi SSW 10.4 mph - 0.03 in Snow Light Snow
3:43 AM 16.0 °F 3.6 °F 14.0 °F 92% 29.79 in 2.0 mi SW 10.4 mph - 0.03 in Snow Light Snow
3:47 AM 16.0 °F 3.6 °F 14.0 °F 92% 29.78 in 3.0 mi SW 10.4 mph - 0.03 in Snow Light Snow
3:54 AM 17.1 °F 5.0 °F 14.0 °F 88% 29.86 in 5.0 mi SW 10.4 mph - 0.03 in   Overcast
4:26 AM 18.0 °F 6.9 °F 15.1 °F 88% 29.77 in 5.0 mi SW 9.2 mph - 0.00 in   Overcast
4:54 AM 19.0 °F 8.2 °F 16.0 °F 88% 29.84 in 1.8 mi WSW 9.2 mph - 0.00 in Snow Light Snow
5:10 AM 21.0 °F 10.6 °F 18.0 °F 88% 29.77 in 2.5 mi WSW 9.2 mph - 0.00 in Snow Light Snow
5:12 AM 21.0 °F 10.6 °F 18.0 °F 88% 29.77 in 3.0 mi West 9.2 mph - 0.00 in Snow Light Snow
5:24 AM 21.0 °F 9.9 °F 18.0 °F 88% 29.77 in 3.0 mi West 10.4 mph - 0.00 in Snow Light Snow
5:54 AM 21.0 °F 9.9 °F 18.0 °F 88% 29.85 in 4.0 mi WSW 10.4 mph - 0.00 in Snow Light Snow
6:20 AM 21.0 °F 11.4 °F 19.0 °F 92% 29.77 in 1.8 mi West 8.1 mph - 0.00 in Snow Light Snow
6:29 AM 21.9 °F 12.5 °F 19.0 °F 89% 29.77 in 1.2 mi West 8.1 mph - 0.00 in Snow Light Snow
6:54 AM 21.9 °F 11.7 °F 19.9 °F 92% 29.86 in 1.5 mi West 9.2 mph - 0.00 in Snow Light Snow
7:03 AM 24.1 °F 12.5 °F 21.0 °F 88% 29.78 in 3.0 mi WNW 12.7 mph - 0.00 in Snow Light Snow
7:35 AM 27.0 °F 15.6 °F 23.0 °F 85% 29.79 in 9.0 mi WNW 13.8 mph - 0.00 in   Overcast
7:43 AM 26.1 °F 15.6 °F 23.0 °F 88% 29.79 in 9.0 mi WNW 11.5 mph - 0.00 in   Overcast
7:50 AM 26.6 °F 15.2 °F 21.2 °F 80% 29.80 in 10.0 mi WNW 13.8 mph - 0.00 in   Overcast
7:54 AM 26.1 °F 15.0 °F 21.0 °F 81% 29.87 in 10.0 mi WNW 12.7 mph - 0.00 in   Mostly Cloudy
8:54 AM 25.0 °F 15.5 °F 21.0 °F 85% 29.89 in 9.0 mi WNW 9.2 mph - N/A   Scattered Clouds
9:41 AM 28.0 °F 20.0 °F 23.0 °F 81% 29.83 in 9.0 mi WNW 8.1 mph - N/A   Overcast
9:54 AM 28.0 °F 18.1 °F 23.0 °F 81% 29.90 in 10.0 mi West 11.5 mph - N/A   Overcast
10:37 AM 28.9 °F 18.6 °F 21.9 °F 75% 29.83 in 1.8 mi WNW 12.7 mph - 0.00 in Snow Light Snow
10:49 AM 28.4 °F 16.2 °F 21.2 °F 74% 29.83 in 3.0 mi WNW 17.3 mph 24.2 mph 0.00 in Snow Light Snow
10:54 AM 28.0 °F 16.5 °F 21.0 °F 75% 29.90 in 8.0 mi WNW 15.0 mph - 0.00 in   Mostly Cloudy
11:01 AM 28.0 °F 15.3 °F 21.0 °F 75% 29.83 in 10.0 mi WNW 18.4 mph - N/A   Mostly Cloudy
11:33 AM 30.0 °F 19.5 °F 21.9 °F 72% 29.82 in 10.0 mi NW 13.8 mph - 0.00 in   Overcast
11:40 AM 28.0 °F 14.3 °F 23.0 °F 81% 29.83 in 1.0 mi NW 21.9 mph 29.9 mph 0.00 in Snow Light Snow
11:42 AM 27.0 °F 13.2 °F 21.9 °F 81% 29.83 in 0.8 mi NW 20.7 mph 29.9 mph 0.00 in Snow Light Snow
11:54 AM 26.1 °F 13.1 °F 21.9 °F 84% 29.90 in 0.5 mi NW 17.3 mph - 0.00 in Fog , Snow Light Snow
11:57 AM 27.0 °F 15.2 °F 21.9 °F 81% 29.83 in 1.2 mi WNW 15.0 mph - 0.00 in Snow Light Snow
12:02 PM 27.0 °F 15.6 °F 21.0 °F 78% 29.83 in 3.0 mi WNW 13.8 mph - 0.00 in Snow Light Snow
12:16 PM 28.9 °F 16.9 °F 19.9 °F 69% 29.83 in 6.0 mi WNW 17.3 mph 23.0 mph 0.00 in Snow Light Snow
12:54 PM 27.0 °F 16.1 °F 19.9 °F 75% 29.90 in 4.0 mi WNW 12.7 mph - 0.00 in Snow Light Snow
1:00 PM 27.0 °F 13.9 °F 19.9 °F 75% 29.84 in 1.5 mi NW 18.4 mph - 0.00 in Snow Light Snow
1:02 PM 26.1 °F 12.7 °F 19.9 °F 78% 29.84 in 0.8 mi NW 18.4 mph - 0.00 in Snow Light Snow
1:18 PM 26.1 °F 15.0 °F 21.9 °F 84% 29.84 in 0.2 mi WNW 12.7 mph - 0.00 in Fog , Snow Heavy Snow
1:29 PM 26.1 °F 14.5 °F 21.0 °F 81% 29.83 in 1.2 mi WNW 13.8 mph - 0.01 in Snow Light Snow
1:31 PM 26.1 °F 14.0 °F 21.0 °F 81% 29.83 in 4.0 mi WNW 15.0 mph - 0.01 in Snow Light Snow
1:54 PM 26.1 °F 13.1 °F 19.0 °F 75% 29.90 in 10.0 mi WNW 17.3 mph - 0.01 in   Scattered Clouds
2:54 PM 26.1 °F 14.5 °F 17.1 °F 69% 29.92 in 10.0 mi WNW 13.8 mph 21.9 mph N/A   Overcast
3:54 PM 26.1 °F 14.0 °F 17.1 °F 69% 29.94 in 10.0 mi West 15.0 mph 21.9 mph 0.00 in   Overcast
4:54 PM 25.0 °F 14.2 °F 18.0 °F 75% 29.95 in 9.0 mi West 11.5 mph - 0.00 in   Overcast
5:38 PM 24.1 °F 10.1 °F 17.1 °F 75% 29.90 in 4.0 mi WNW 18.4 mph 25.3 mph 0.00 in Snow Light Snow
5:54 PM 24.1 °F 9.8 °F 16.0 °F 71% 29.98 in 7.0 mi NW 19.6 mph 26.5 mph 0.00 in Snow Light Snow
6:54 PM 21.0 °F 6.2 °F 12.0 °F 68% 30.00 in 9.0 mi WNW 18.4 mph 25.3 mph 0.00 in   Overcast
7:54 PM 19.0 °F 2.7 °F 10.0 °F 68% 30.03 in 10.0 mi NW 20.7 mph - 0.00 in   Overcast
8:54 PM 17.1 °F 1.5 °F 8.1 °F 68% 30.04 in 10.0 mi NW 17.3 mph - N/A   Overcast
9:54 PM 16.0 °F 1.1 °F 7.0 °F 68% 30.06 in 10.0 mi NW 15.0 mph - N/A   Overcast
10:54 PM 14.0 °F -2.0 °F 5.0 °F 67% 30.07 in 10.0 mi NW 16.1 mph - N/A   Overcast
11:54 PM 12.0 °F -2.0 °F 3.0 °F 67% 30.07 in 10.0 mi WNW 11.5 mph - N/A   Overcast